User: anonymous   Login
Location: Unspecified
(0.0000°N, 0.0000°E)
Time: 22:17:17
(UTC+00:00)
Language:

ISS - Orbit

View from above orbital plane
View from above orbital plane
View from above satellite
View from above satellite

Ground track
Ground track

The orbit data is extracted from the following two-line orbital elements,

1 25544U 98067A   19108.86669675  .00016717  00000-0  10270-3 0  9021
2 25544  51.6387 296.0863 0001281 208.3269 151.7814 15.52525619  6035
Epoch (UTC): 18 April 2019 20:48:02
Eccentricity: 0.0001281
inclination: 51.6387°
perigee height: 408 km
apogee height: 410 km
right ascension of ascending node: 296.0863°
argument of perigee: 208.3269°
revolutions per day: 15.52525619
mean anomaly at epoch: 151.7814°
orbit number at epoch: 603

The dashed part of the orbit path shows where the satellite is in the earth's shadow,  

DLR